| time (UTC) | temp F | wind direction | speed knots | gust knots | rain 1hr in | rain 24hr in | rain mn in | humidity % | barometer mb |
| 20260502163556 | 69 | 162 | 0.0 | 0.0 | 0.00 | 0.00 | 0.00 | 20 | 1018.7 |
| 20260502163048 | 70 | 109 | 0.0 | 0.0 | 0.00 | 0.00 | 0.00 | 20 | 1018.8 |
| 20260502162540 | 70 | 87 | 0.0 | 0.0 | 0.00 | 0.00 | 0.00 | 19 | 1018.8 |
| 20260502162032 | 70 | 7 | 0.0 | 0.0 | 0.00 | 0.00 | 0.00 | 19 | 1018.9 |
| 20260502161524 | 71 | 7 | 0.0 | 0.0 | 0.00 | 0.00 | 0.00 | 18 | 1018.9 |
| 20260502161017 | 71 | 132 | 0.0 | 0.0 | 0.00 | 0.00 | 0.00 | 18 | 1019.0 |
| 20260502160509 | 72 | 135 | 0.0 | 0.9 | 0.00 | 0.00 | 0.00 | 17 | 1019.0 |
| 20260502151853 | 87 | 88 | 0.9 | 1.7 | 0.00 | 0.00 | 0.00 | 13 | 1019.6 |
| 20260502151345 | 87 | 102 | 0.9 | 1.7 | 0.00 | 0.00 | 0.00 | 13 | 1019.6 |
| 20260502150836 | 87 | 67 | 0.9 | 1.7 | 0.00 | 0.00 | 0.00 | 12 | 1019.7 |
| 20260502150327 | 87 | 30 | 0.9 | 1.7 | 0.00 | 0.00 | 0.00 | 13 | 1019.9 |
| 20260502130458 | 90 | 75 | 0.0 | 1.7 | 0.00 | 0.00 | 0.00 | 14 | 1021.2 |
| 20260502123404 | 90 | 98 | 0.9 | 2.6 | 0.00 | 0.00 | 0.00 | 15 | 1021.8 |
| 20260502122855 | 90 | 90 | 0.9 | 2.6 | 0.00 | 0.00 | 0.00 | 15 | 1021.8 |
| 20260502122346 | 89 | 168 | 0.9 | 1.7 | 0.00 | 0.00 | 0.00 | 15 | 1021.9 |
| 20260502121837 | 89 | 131 | 0.9 | 1.7 | 0.00 | 0.00 | 0.00 | 15 | 1022.0 |
| 20260502121328 | 89 | 112 | 0.0 | 1.7 | 0.00 | 0.00 | 0.00 | 16 | 1022.0 |
| 20260502120819 | 88 | 157 | 0.9 | 1.7 | 0.00 | 0.00 | 0.00 | 16 | 1022.1 |
| 20260502120310 | 87 | 152 | 1.7 | 6.1 | 0.00 | 0.00 | 0.00 | 15 | 1022.2 |
| 20260502115801 | 88 | 136 | 1.7 | 3.5 | 0.00 | 0.00 | 0.00 | 16 | 1022.2 |
| 20260502115252 | 88 | 106 | 0.9 | 2.6 | 0.00 | 0.00 | 0.00 | 16 | 1022.2 |
| 20260502114744 | 88 | 129 | 0.9 | 2.6 | 0.00 | 0.00 | 0.00 | 18 | 1022.4 |
| 20260502114235 | 88 | 37 | 0.9 | 1.7 | 0.00 | 0.00 | 0.00 | 18 | 1022.4 |
| 20260502113726 | 88 | 93 | 0.9 | 3.5 | 0.00 | 0.00 | 0.00 | 17 | 1022.4 |
| 20260502113217 | 87 | 80 | 0.9 | 1.7 | 0.00 | 0.00 | 0.00 | 18 | 1022.5 |
| 20260502112708 | 87 | 170 | 0.0 | 0.9 | 0.00 | 0.00 | 0.00 | 19 | 1022.6 |
| 20260502112159 | 86 | 94 | 0.9 | 2.6 | 0.00 | 0.00 | 0.00 | 18 | 1022.6 |
| 20260502111651 | 86 | 101 | 0.9 | 3.5 | 0.00 | 0.00 | 0.00 | 18 | 1022.7 |
| 20260502111142 | 87 | 172 | 0.9 | 4.3 | 0.00 | 0.00 | 0.00 | 19 | 1022.8 |
| 20260502110633 | 87 | 151 | 0.0 | 1.7 | 0.00 | 0.00 | 0.00 | 19 | 1022.9 |
| 20260502110124 | 86 | 166 | 0.9 | 4.3 | 0.00 | 0.00 | 0.00 | 20 | 1022.9 |
| 20260502105615 | 85 | 84 | 0.9 | 2.6 | 0.00 | 0.00 | 0.00 | 21 | 1023.0 |
| 20260502105107 | 85 | 77 | 0.9 | 3.5 | 0.00 | 0.00 | 0.00 | 21 | 1023.1 |
| 20260502104558 | 86 | 83 | 0.9 | 2.6 | 0.00 | 0.00 | 0.00 | 21 | 1023.1 |
| 20260502104049 | 85 | 123 | 0.9 | 1.7 | 0.00 | 0.00 | 0.00 | 21 | 1023.3 |
| 20260502103541 | 84 | 68 | 0.9 | 3.5 | 0.00 | 0.00 | 0.00 | 22 | 1023.3 |
| 20260502103032 | 84 | 124 | 0.9 | 2.6 | 0.00 | 0.00 | 0.00 | 22 | 1023.3 |
| 20260502102523 | 84 | 104 | 0.9 | 2.6 | 0.00 | 0.00 | 0.00 | 22 | 1023.4 |
| 20260502102015 | 84 | 150 | 0.0 | 0.0 | 0.00 | 0.00 | 0.00 | 23 | 1023.5 |
| 20260502101506 | 82 | 122 | 0.9 | 2.6 | 0.00 | 0.00 | 0.00 | 23 | 1023.5 |
| 20260502100958 | 83 | 63 | 0.9 | 2.6 | 0.00 | 0.00 | 0.00 | 23 | 1023.6 |
| 20260502100449 | 83 | 130 | 0.9 | 1.7 | 0.00 | 0.00 | 0.00 | 23 | 1023.8 |
| 20260502091325 | 79 | 181 | 0.9 | 2.6 | 0.00 | 0.00 | 0.00 | 27 | 1024.2 |
| 20260502090817 | 79 | 143 | 0.9 | 1.7 | 0.00 | 0.00 | 0.00 | 27 | 1024.2 |
| 20260502090309 | 79 | 107 | 0.9 | 3.5 | 0.00 | 0.00 | 0.00 | 27 | 1024.3 |
| 20260502071523 | 63 | 144 | 0.0 | 2.6 | 0.00 | 0.00 | 0.00 | 48 | 1025.0 |
| 20260502071015 | 62 | 91 | 0.0 | 0.0 | 0.00 | 0.00 | 0.00 | 48 | 1025.0 |
| 20260502070508 | 61 | 132 | 0.9 | 3.5 | 0.00 | 0.00 | 0.00 | 50 | 1025.1 |
| 20260502070000 | 61 | 135 | 0.0 | 1.7 | 0.00 | 0.00 | 0.00 | 52 | 1025.1 |
| 20260502065453 | 60 | 92 | 0.0 | 1.7 | 0.00 | 0.00 | 0.00 | 54 | 1025.0 |
| 20260502064946 | 59 | 121 | 1.7 | 4.3 | 0.00 | 0.00 | 0.00 | 55 | 1025.1 |
| 20260502064438 | 59 | 111 | 0.9 | 2.6 | 0.00 | 0.00 | 0.00 | 57 | 1025.0 |
| 20260502063931 | 58 | 125 | 0.0 | 1.7 | 0.00 | 0.00 | 0.00 | 59 | 1025.0 |
| 20260502063423 | 58 | 96 | 0.0 | 1.7 | 0.00 | 0.00 | 0.00 | 64 | 1025.0 |
| 20260502062916 | 57 | 101 | 0.0 | 0.0 | 0.00 | 0.00 | 0.00 | 68 | 1025.0 |
| 20260502062409 | 55 | 52 | 0.0 | 1.7 | 0.00 | 0.00 | 0.00 | 71 | 1025.1 |
| 20260502061844 | 54 | 119 | 0.0 | 0.0 | 0.00 | 0.00 | 0.00 | 73 | 1025.1 |
| 20260502061319 | 53 | 159 | 0.0 | 0.0 | 0.00 | 0.00 | 0.00 | 76 | 1025.0 |
| 20260502060755 | 53 | 142 | 0.0 | 0.0 | 0.00 | 0.00 | 0.00 | 77 | 1025.0 |
| 20260502060230 | 52 | 58 | 0.0 | 0.0 | 0.00 | 0.00 | 0.00 | 79 | 1025.1 |
| 20260502055705 | 51 | 356 | 0.0 | 0.0 | 0.00 | 0.00 | 0.00 | 80 | 1025.1 |
| 20260501182418 | 55 | 225 | 0.0 | 0.0 | 0.00 | 0.00 | 0.00 | 39 | 1025.8 |
| 20260501181854 | 56 | 225 | 0.0 | 0.0 | 0.00 | 0.00 | 0.00 | 38 | 1025.8 |
| 20260501181329 | 56 | 225 | 0.0 | 0.0 | 0.00 | 0.00 | 0.00 | 37 | 1025.8 |
| 20260501180804 | 56 | 225 | 0.0 | 0.0 | 0.00 | 0.00 | 0.00 | 37 | 1025.7 |
| 20260501180240 | 57 | 225 | 0.0 | 0.0 | 0.00 | 0.00 | 0.00 | 37 | 1025.7 |
| 20260501175715 | 57 | 184 | 0.0 | 0.0 | 0.00 | 0.00 | 0.00 | 37 | 1025.7 |
| 20260501175150 | 57 | 180 | 0.0 | 0.0 | 0.00 | 0.00 | 0.00 | 36 | 1025.7 |
| 20260501174642 | 58 | 180 | 0.0 | 0.0 | 0.00 | 0.00 | 0.00 | 36 | 1025.7 |
| 20260501174135 | 58 | 180 | 0.0 | 0.0 | 0.00 | 0.00 | 0.00 | 36 | 1025.7 |
| 20260501173628 | 58 | 196 | 0.0 | 0.0 | 0.00 | 0.00 | 0.00 | 36 | 1025.7 |
| 20260501173120 | 59 | 164 | 0.0 | 0.0 | 0.00 | 0.00 | 0.00 | 35 | 1025.6 |
| 20260501172613 | 59 | 224 | 0.0 | 0.0 | 0.00 | 0.00 | 0.00 | 33 | 1025.6 |
| 20260501172106 | 59 | 225 | 0.0 | 0.0 | 0.00 | 0.00 | 0.00 | 34 | 1025.6 |
| 20260501171558 | 59 | 145 | 0.0 | 1.7 | 0.00 | 0.00 | 0.00 | 34 | 1025.5 |
| 20260501171051 | 60 | 165 | 0.0 | 0.0 | 0.00 | 0.00 | 0.00 | 34 | 1025.5 |
| 20260501170543 | 60 | 243 | 0.0 | 0.0 | 0.00 | 0.00 | 0.00 | 32 | 1025.5 |
| 20260501170036 | 60 | 191 | 0.0 | 0.0 | 0.00 | 0.00 | 0.00 | 33 | 1025.6 |
| 20260501165529 | 61 | 180 | 0.0 | 0.0 | 0.00 | 0.00 | 0.00 | 32 | 1025.6 |
| 20260501165021 | 61 | 180 | 0.0 | 0.0 | 0.00 | 0.00 | 0.00 | 33 | 1025.6 |
| 20260501164514 | 61 | 212 | 0.0 | 0.0 | 0.00 | 0.00 | 0.00 | 32 | 1025.7 |
| 20260501164006 | 62 | 200 | 0.0 | 0.0 | 0.00 | 0.00 | 0.00 | 31 | 1025.7 |